RH
46 45 44 43 42 41 39 37 35 33 31 29 27 26 24 23 22 21 20 19 18 17 17 16 15 15 14 14 14 13 13 13 13 13 13 13 13 13 13 13 13 13 13 13 12 12 12 12 12 13 13 13 13 14 14 15 15 15 16 16 16 17 17 18 18 18 18 18 19 18 18 18 19 18 18 19 19 19 19 20 20 21 22 22 23 24 25 25
49 47 45 44 42 40 38 36 33 30 28 25 23 22 20 19 18 17 16 16 15 15 14 14 13 13 13 13 13 13 12 12 12 12 12 12 12 12 12 12 12 12 12 12 12 12 12 11 12 12 11 12 11 12 12 12 13 13 13 14 14 14 15 16 16 16 16 17 17 17 17 17 17 17 17 17 17 18 18 18 19 19 20 20 21 22 23 23
49 46 44 41 37 34 31 28 26 23 21 20 19 18 17 16 15 15 14 14 13 13 12 12 12 11 11 11 11 11 11 11 11 11 11 11 11 11 11 11 11 11 11 12 12 11 11 11 11 11 11 11 11 11 11 11 11 11 11 11 12 12 13 13 13 14 14 15 15 15 15 15 15 15 16 16 16 16 17 17 17 18 18 18 19 20 21 20
44 40 36 32 28 25 23 21 20 19 18 18 18 18 18 17 17 17 17 16 15 15 14 14 13 12 12 11 11 11 10 10 10 10 10 10 10 10 11 11 11 11 11 11 11 11 11 11 11 11 11 10 10 10 10 10 10 10 10 10 11 11 11 11 12 12 12 13 13 13 13 13 14 14 14 14 14 15 15 16 16 16 16 17 18 18 18 19
32 29 26 24 22 21 21 20 21 21 21 21 22 23 23 23 23 23 22 22 21 20 19 18 17 16 15 14 14 13 13 12 12 11 11 10 10 10 10 10 10 10 10 10 10 11 10 10 10 10 10 10 10 10 10 10 9 9 9 9 10 10 10 10 10 11 11 11 11 12 12 12 12 12 12 12 13 13 13 14 14 14 15 15 16 16 17 18
24 23 23 23 23 24 25 26 27 27 27 28 29 30 30 30 30 29 29 29 28 27 26 24 22 21 20 19 18 17 16 15 14 14 13 13 12 12 11 11 11 10 10 10 10 10 10 10 10 10 10 10 10 10 9 9 9 9 9 9 9 9 9 9 10 10 10 10 10 10 11 10 11 11 11 11 11 12 12 12 12 12 13 13 14 15 16 17
25 26 28 30 31 31 32 33 34 34 36 37 37 36 36 36 36 36 36 35 34 33 31 29 27 26 25 24 22 20 19 18 17 16 16 15 15 15 14 13 13 12 11 11 11 10 10 10 10 10 10 10 10 10 9 9 9 9 9 9 9 9 9 9 9 9 9 9 10 10 10 10 10 10 10 10 10 10 11 11 11 11 12 12 13 14 16 17
32 34 36 37 37 38 39 41 43 43 44 45 44 43 41 41 41 42 42 42 42 41 38 35 33 31 30 28 26 25 23 22 21 20 19 18 17 17 16 16 15 14 13 13 12 12 11 11 11 10 10 10 10 9 9 9 9 9 9 9 8 8 8 9 9 9 9 9 9 9 9 9 9 9 9 10 9 9 10 10 10 10 11 12 13 14 16 17
38 40 41 41 42 45 48 49 51 52 52 53 52 49 46 45 47 50 52 53 53 52 49 46 43 40 38 35 33 31 30 28 26 24 23 21 20 19 18 17 17 16 15 14 14 13 13 12 12 11 11 10 10 10 10 9 9 9 9 9 9 9 9 9 9 9 9 9 9 9 9 9 9 9 9 9 9 9 9 9 10 10 10 11 12 15 16 16
43 44 44 45 49 52 53 54 57 58 58 60 60 56 54 54 57 62 64 65 65 64 61 59 56 53 48 45 42 40 38 36 34 31 29 27 25 24 22 21 20 19 18 17 16 15 14 14 13 13 12 11 11 11 10 10 10 10 10 9 9 9 9 9 9 9 9 9 9 9 9 9 9 8 8 9 9 9 9 9 9 9 10 11 13 14 15 15
46 47 47 49 54 56 54 54 61 65 65 67 67 66 65 66 69 73 74 75 74 73 71 69 67 64 60 55 51 49 47 45 43 41 39 37 34 32 30 28 26 25 24 22 21 19 18 18 17 16 15 14 13 13 12 12 11 11 11 11 10 10 9 9 9 9 9 9 9 9 9 8 8 8 9 9 9 9 9 9 10 10 11 12 14 15 15 15
50 49 49 52 55 57 53 54 64 69 71 75 75 75 76 76 78 79 80 81 81 80 79 76 72 70 67 64 62 58 56 54 52 50 48 46 43 41 39 36 35 33 31 29 28 27 26 24 23 22 20 19 18 18 17 16 15 14 13 13 12 11 11 11 10 10 10 10 9 9 9 9 10 10 10 10 11 11 11 11 12 12 13 14 15 16 17 16
52 51 50 51 54 54 51 55 66 72 74 79 81 82 83 84 85 85 86 87 86 86 84 81 78 75 72 71 71 68 65 62 59 57 55 54 52 50 49 46 44 42 40 39 38 36 35 33 31 29 27 27 26 25 23 22 21 20 19 18 17 16 16 15 14 13 12 11 11 12 13 13 12 12 13 14 14 14 15 16 16 16 17 18 19 20 20 19
55 54 52 52 53 53 53 60 71 75 75 78 81 83 84 85 86 87 88 88 87 87 85 84 83 82 78 75 75 74 71 69 66 64 62 61 59 58 56 54 53 51 48 47 45 44 43 41 39 36 35 35 33 31 29 28 28 26 25 24 23 23 22 20 20 19 19 17 17 18 19 18 15 15 17 18 19 20 21 20 21 22 23 23 23 24 24 25
62 60 58 57 57 58 61 67 76 79 78 78 78 79 79 79 80 81 82 83 83 83 83 83 83 83 81 79 77 75 74 72 71 70 69 67 65 63 60 57 56 54 54 53 52 52 51 50 47 44 43 42 40 38 36 34 33 31 29 27 28 29 28 26 27 27 25 22 21 22 22 21 19 19 21 22 24 25 25 25 26 27 27 28 28 29 30 31
71 70 68 67 67 68 70 74 79 82 81 80 79 78 77 76 76 76 77 76 76 76 77 79 80 80 82 81 76 74 74 73 72 72 72 72 70 68 65 62 61 59 58 57 58 59 59 58 55 52 52 51 48 47 44 39 36 35 35 34 35 36 33 31 31 29 27 25 25 24 23 22 21 22 24 26 27 28 29 30 31 32 31 32 33 35 37 38
77 75 75 73 73 73 74 76 79 81 80 79 79 77 75 72 71 71 70 70 69 68 68 70 71 73 78 77 72 71 73 74 76 77 75 74 73 73 72 71 70 68 64 60 60 61 63 64 63 64 65 61 57 54 51 46 43 44 45 44 44 42 36 33 33 33 32 29 30 29 27 26 25 24 25 28 30 32 36 36 36 36 36 38 38 40 43 45
78 76 74 72 71 71 71 72 73 73 73 73 74 73 71 69 67 66 66 64 63 61 61 62 62 64 68 66 63 64 66 68 71 73 74 74 74 74 72 73 74 71 67 63 61 61 63 66 69 72 73 68 61 58 55 54 58 59 55 52 53 51 44 39 40 43 42 38 36 35 34 32 29 28 28 30 33 38 41 41 39 40 42 44 43 43 46 49
77 75 74 73 71 70 69 68 68 68 68 68 69 68 67 66 65 65 64 61 58 56 55 55 56 58 59 57 57 58 59 59 61 64 68 70 70 70 69 69 70 68 65 62 62 65 67 69 70 70 70 66 63 63 63 66 72 75 67 58 56 56 51 48 50 53 54 49 43 40 38 36 34 34 34 32 33 38 42 43 43 42 44 50 54 55 55 59
63 64 66 67 69 70 69 68 67 67 67 67 68 67 64 62 63 64 61 58 55 53 52 52 52 54 54 51 50 53 56 56 57 60 62 63 63 64 63 63 64 63 60 59 65 70 72 74 71 64 62 62 65 73 76 75 76 78 75 68 62 59 56 57 57 58 61 58 52 50 46 42 41 43 47 49 42 37 41 46 48 47 48 53 59 65 72 76
54 54 54 55 57 60 63 66 68 68 66 65 65 66 63 60 61 62 58 55 55 54 54 56 56 57 56 51 49 53 57 56 55 56 57 58 59 60 61 62 62 60 57 60 67 73 75 74 68 63 65 67 71 77 79 76 74 75 77 78 76 69 64 65 62 59 59 58 59 63 63 60 56 52 59 71 63 47 43 46 50 54 57 61 67 76 86 89
59 57 56 54 53 52 53 56 61 66 67 67 65 65 63 61 62 63 58 55 55 57 59 64 68 68 64 58 55 58 63 62 60 59 58 58 61 63 63 62 60 59 60 62 67 71 70 66 63 66 70 73 75 78 80 79 80 81 81 84 86 81 74 69 66 64 61 58 60 69 77 82 80 73 75 86 81 65 54 52 56 60 66 76 85 91 94 96
62 61 59 57 55 53 52 50 51 56 61 66 67 67 67 64 64 66 63 58 56 58 63 68 73 76 76 72 67 66 70 71 70 69 67 67 70 71 66 64 63 62 62 62 63 65 63 59 61 66 69 73 77 82 87 87 84 83 84 87 89 87 79 70 66 66 67 69 72 76 84 90 95 97 98 98 90 73 60 54 55 60 70 85 96 98 97 99
65 62 60 57 56 54 52 50 49 50 53 57 61 65 70 72 70 68 67 65 61 59 63 67 71 78 84 85 80 76 77 76 74 77 78 79 80 78 72 71 71 67 63 61 63 67 67 63 65 67 68 70 72 76 83 86 86 85 86 88 89 86 79 72 71 71 73 85 93 94 97 99 102 105 105 103 90 67 54 50 52 55 63 77 86 88 88 89
69 65 62 59 57 54 51 49 48 48 49 51 53 56 63 71 75 73 72 71 68 64 63 64 67 73 80 84 83 81 80 76 74 78 83 85 86 83 78 78 79 76 71 69 71 77 77 68 67 69 68 66 66 68 75 81 85 85 85 88 88 81 75 76 86 87 85 94 105 108 109 107 106 104 102 104 95 71 55 50 51 52 60 73 73 68 71 81
71 68 64 60 57 55 52 50 48 47 46 47 49 52 55 61 67 73 77 77 76 72 69 65 65 67 72 78 82 81 79 76 73 75 76 80 83 82 82 82 83 81 79 82 87 91 86 73 70 71 68 67 68 70 72 75 79 81 85 88 84 82 82 84 92 97 92 90 93 99 106 108 108 106 103 106 102 90 79 67 60 62 71 83 82 73 74 82
73 70 67 63 60 59 56 54 52 49 47 45 45 47 50 53 57 64 74 81 83 79 76 73 70 68 70 75 80 82 81 76 73 70 67 70 73 76 81 83 81 77 78 87 93 95 92 82 79 78 76 76 78 78 76 78 82 85 86 84 81 88 95 89 86 90 90 90 90 92 98 105 108 109 107 107 104 102 101 90 78 77 78 81 89 96 97 95
77 74 70 66 64 63 61 59 55 52 50 47 45 44 45 47 51 55 62 73 81 83 85 82 76 73 74 74 76 79 81 78 76 70 64 65 66 66 71 75 75 71 73 83 87 89 92 88 83 84 87 88 90 91 87 84 85 85 84 82 83 90 93 86 80 81 85 92 97 97 101 107 106 105 103 103 103 102 105 99 87 83 78 76 86 96 101 103
80 77 73 70 68 66 65 62 57 53 52 49 46 45 44 45 48 51 54 60 67 75 82 85 83 80 76 74 73 73 75 78 78 73 68 68 68 65 65 65 66 64 65 72 75 75 82 84 82 85 92 95 99 99 92 87 87 90 91 90 90 89 86 82 78 76 76 80 91 100 108 109 102 102 105 105 105 100 97 96 89 82 75 76 86 90 95 105
79 76 72 69 68 68 66 63 59 56 54 50 47 46 46 47 49 53 55 56 58 62 69 76 80 80 77 74 73 74 77 81 81 77 73 72 73 73 71 68 67 65 62 65 66 62 63 69 73 79 86 91 97 99 93 88 90 96 99 97 96 97 96 90 80 76 72 72 85 97 103 97 88 101 113 107 101 95 88 86 83 79 74 74 81 82 89 103
81 78 75 71 71 71 69 66 63 59 55 51 49 49 50 52 55 59 58 56 57 59 61 65 69 74 78 78 78 80 82 83 82 81 78 74 73 73 72 71 70 68 64 62 62 58 54 56 62 68 73 77 85 93 91 85 86 90 92 93 94 96 99 98 91 87 83 82 90 91 87 80 79 101 115 102 93 93 93 91 84 80 79 78 79 75 77 88
83 81 80 80 80 79 74 70 66 63 60 58 58 58 59 61 63 66 65 61 63 64 62 64 67 69 72 73 75 78 79 77 76 78 77 75 74 72 71 70 69 68 64 59 59 60 58 56 59 65 68 70 75 80 79 74 74 78 80 82 85 84 86 93 95 92 91 91 90 82 76 74 80 99 109 97 89 91 96 98 92 89 90 91 89 81 75 82
79 79 83 89 90 86 80 76 73 72 71 72 73 73 74 76 76 77 75 71 72 72 68 68 69 66 63 64 67 69 69 68 68 70 71 72 72 71 71 70 69 68 64 59 59 63 64 62 61 63 67 69 70 69 66 62 61 66 70 73 75 75 76 82 84 81 79 80 80 77 75 77 86 96 95 86 82 82 85 88 90 94 97 98 97 90 81 80
73 77 82 89 94 92 87 84 83 82 82 83 87 87 86 88 88 87 85 80 77 77 73 71 71 69 65 65 67 65 62 61 62 63 64 65 66 66 65 64 63 63 61 60 60 61 63 63 61 60 62 63 63 61 59 56 55 58 64 67 69 68 66 68 71 69 69 69 70 72 72 73 81 83 79 77 78 78 78 80 84 92 97 96 95 92 85 80
69 75 79 85 91 93 93 92 88 85 86 88 90 91 90 93 93 91 88 82 78 77 75 72 72 71 67 65 65 65 63 61 61 61 60 60 60 59 57 56 55 55 54 55 56 56 57 58 58 57 56 55 55 56 57 58 58 56 57 61 64 64 62 63 65 64 62 61 60 62 64 67 72 69 64 70 76 79 80 79 78 85 94 98 95 91 88 84
71 75 78 83 87 89 93 96 93 88 87 89 89 87 86 89 91 89 84 78 77 78 75 71 69 68 65 62 61 61 60 58 58 58 57 57 57 55 54 52 50 49 48 48 48 49 51 53 54 55 53 50 50 52 54 55 56 54 53 54 56 57 58 59 60 57 54 52 52 56 62 67 69 64 60 65 70 74 76 72 68 68 76 85 88 89 90 89
74 78 83 86 88 90 91 92 93 92 90 90 89 85 83 85 87 85 80 75 73 72 69 65 62 60 59 57 54 52 52 52 52 52 51 51 53 53 54 53 52 50 48 48 47 45 47 49 51 52 50 49 49 50 50 50 51 51 51 51 51 53 55 54 53 52 51 51 52 56 62 65 66 60 56 60 63 62 62 61 60 58 60 67 72 74 76 80
72 78 87 90 90 93 92 91 92 92 93 94 90 86 85 85 83 80 75 68 64 61 59 57 56 55 55 54 51 49 50 53 54 54 51 51 53 54 53 53 53 52 50 49 48 48 48 49 50 51 49 47 48 49 50 51 52 52 52 51 51 51 52 52 52 50 51 52 54 57 59 60 61 57 53 55 57 56 55 54 55 54 54 56 59 61 61 62
70 77 88 92 92 92 92 95 98 95 93 92 87 84 85 82 78 74 69 64 59 57 56 57 59 59 59 59 58 55 56 57 58 58 57 55 55 54 52 50 49 49 47 46 45 45 46 46 45 46 45 44 44 45 46 46 46 48 48 48 48 47 47 48 48 47 47 48 49 50 52 53 53 53 51 51 52 53 54 53 52 50 48 46 47 50 52 52
68 75 87 91 90 88 88 94 100 97 90 87 83 80 77 74 71 69 68 66 64 63 63 65 67 68 66 64 63 61 59 57 55 54 53 51 49 46 44 42 40 39 38 38 38 38 38 38 38 39 40 40 38 38 39 40 39 40 40 40 40 40 40 40 40 40 40 41 41 42 42 43 44 44 44 43 43 44 45 46 46 46 45 43 42 43 45 46
68 74 84 86 82 80 83 87 91 90 86 83 80 74 68 66 66 68 72 74 73 72 73 72 71 71 69 64 61 59 56 51 47 44 42 40 38 36 35 34 33 33 32 31 32 32 32 33 35 37 39 39 38 34 32 34 35 37 36 35 34 34 35 35 35 36 34 34 34 35 35 36 37 37 37 37 37 37 37 38 38 39 39 40 40 40 40 40
74 78 84 82 74 70 74 79 80 81 80 79 76 70 67 67 68 71 78 82 81 78 77 73 67 63 59 55 51 48 45 43 40 38 35 33 32 30 29 29 30 31 32 31 30 30 30 31 33 36 39 42 44 41 36 33 33 34 34 33 33 33 32 33 33 35 35 33 32 32 32 33 33 33 34 36 36 36 35 35 34 34 35 35 35 36 36 35
75 79 82 82 76 70 70 73 75 77 78 77 76 76 78 79 78 79 80 81 78 72 66 60 55 51 47 44 42 39 37 35 33 32 31 30 29 28 27 27 28 30 32 33 33 32 32 31 31 34 37 41 45 47 46 43 39 36 33 32 33 33 34 33 33 34 35 35 35 33 33 34 33 31 33 34 34 35 35 35 34 34 33 33 33 32 33 33
73 73 75 78 76 72 72 74 76 79 85 87 87 88 91 90 86 81 74 67 61 55 50 47 45 43 41 39 38 38 36 34 33 33 31 29 28 27 28 29 31 32 33 35 35 34 34 34 33 34 35 37 41 44 47 49 48 45 41 37 36 35 35 35 34 32 31 33 34 34 34 36 34 31 31 32 32 33 33 33 33 32 32 33 33 32 31 30
87 84 84 86 88 87 86 87 87 87 93 100 99 94 90 84 75 65 56 50 45 41 40 39 38 37 36 35 35 34 34 34 35 37 38 37 36 36 36 36 36 36 36 36 36 36 36 35 35 36 35 36 39 41 43 46 49 50 48 45 41 38 36 35 34 31 30 30 31 31 33 35 35 33 33 33 34 34 33 33 33 32 32 33 34 34 34 34
101 101 98 97 100 101 98 97 99 97 95 95 89 80 71 62 53 47 42 40 38 37 35 35 35 35 35 36 37 37 37 39 40 42 47 52 55 54 51 47 44 43 41 40 40 39 38 37 37 37 37 37 39 42 44 46 49 52 52 51 48 44 39 36 32 31 31 31 30 31 34 35 35 34 33 33 36 37 36 35 34 34 34 35 36 36 37 38
85 92 92 88 89 96 97 92 89 85 77 70 62 55 50 45 41 39 37 37 40 41 40 40 42 42 43 46 48 49 51 53 54 55 59 67 72 74 71 64 59 55 51 48 47 45 43 41 41 40 40 40 41 43 46 48 50 52 53 52 51 48 43 40 37 36 36 35 33 36 37 35 33 32 32 33 34 35 35 35 35 37 37 38 38 38 38 38
49 56 59 58 56 62 66 64 60 56 50 47 45 43 41 39 37 35 35 35 37 39 41 42 44 46 50 55 59 63 68 71 70 68 68 71 75 78 78 73 66 61 57 53 50 48 47 47 47 46 45 45 45 45 45 46 46 48 50 52 53 51 49 48 48 48 45 40 37 40 40 36 34 35 36 37 36 34 35 37 39 41 42 42 41 41 40 38
35 35 36 37 36 36 38 39 40 40 39 39 40 39 39 38 38 37 37 37 36 37 40 41 43 48 54 61 65 68 70 72 72 70 68 65 65 67 70 68 63 58 56 54 52 49 49 49 48 48 48 47 47 46 46 45 44 45 46 49 52 53 53 55 56 54 50 44 40 40 39 37 38 39 39 41 42 42 43 44 43 43 43 43 44 43 43 41
50 45 41 38 37 35 35 35 36 37 38 38 39 40 40 41 42 42 43 47 50 55 61 66 68 69 69 70 71 69 67 68 69 67 64 62 61 63 65 66 65 62 59 57 55 53 51 49 48 48 47 47 49 50 48 46 45 45 46 47 49 51 54 56 57 55 51 46 44 43 41 43 45 43 41 43 45 45 46 47 47 47 47 46 47 48 48 47
73 72 69 65 60 55 51 49 48 47 48 48 48 48 48 49 51 54 57 62 69 75 81 87 89 86 80 76 74 74 75 75 74 70 68 67 68 68 67 66 67 66 63 59 54 51 50 47 47 46 45 46 51 51 48 47 46 45 48 51 55 59 63 62 60 55 52 49 47 45 45 47 48 47 45 46 47 46 46 47 49 50 50 51 51 52 53 52
72 76 79 82 83 83 81 80 80 78 78 79 77 73 71 70 71 73 73 73 77 82 83 84 85 84 82 79 78 77 76 75 73 70 68 66 64 64 63 62 62 63 63 59 54 50 48 46 45 45 43 47 53 53 49 48 46 46 52 61 65 67 68 66 62 58 54 52 50 50 50 50 49 48 48 48 49 49 49 48 48 47 47 49 51 52 53 52
Wind_Speed
67 67 67 68 68 68 68 68 69 69 69 70 70 71 72 73 74 75 76 76 77 78 79 80 81 82 83 83 84 85 86 87 87 88 88 89 89 90 90 90 90 91 92 93 94 94 95 95 96 96 97 98 100 101 102 103 104 103 104 104 105 107 109 112 113 113 113 112 112 112 113 112 111 111 110 108 106 104 102 100 98 99 98 98 97 96 97 98
65 66 66 66 66 67 67 67 68 68 69 69 70 71 72 73 74 75 76 76 77 78 79 80 81 82 82 83 84 85 86 86 87 88 88 89 89 89 90 90 90 91 91 92 92 93 93 93 94 94 95 95 96 96 97 98 98 98 99 99 100 104 108 110 110 110 111 111 111 111 111 112 111 111 110 108 106 104 101 100 100 100 100 100 98 97 99 99
63 64 64 65 65 65 66 66 67 67 68 68 69 70 70 71 71 72 72 73 73 74 75 76 77 78 79 80 81 82 83 84 85 86 87 88 89 89 90 90 91 91 91 91 92 92 92 93 93 93 93 93 93 93 93 93 94 94 94 94 97 100 103 104 105 106 107 108 107 107 108 109 109 110 108 106 104 102 99 99 100 100 100 100 98 98 101 100
62 62 62 63 63 64 64 64 65 65 65 65 64 64 64 64 64 64 65 65 66 67 68 69 69 71 72 73 74 75 77 78 80 82 84 85 86 87 88 89 90 91 91 91 91 91 92 92 92 93 93 92 92 91 91 91 91 90 90 92 94 96 97 98 99 100 101 102 102 102 103 104 105 106 104 101 99 98 97 98 99 99 99 98 97 99 99 97
60 60 60 61 61 61 60 60 59 59 58 57 56 56 56 56 56 56 57 57 58 58 59 60 61 62 63 64 65 66 68 69 72 74 76 78 80 82 84 85 86 88 89 89 90 90 91 91 92 92 92 91 91 91 90 90 89 88 89 91 92 93 93 94 95 96 96 97 96 97 98 99 100 100 99 97 96 95 95 97 98 98 97 96 96 96 94 93
57 57 56 56 55 54 53 52 51 51 50 49 49 48 48 48 49 49 49 50 50 51 51 52 53 54 54 55 57 58 59 61 63 65 67 69 71 73 76 78 80 82 84 85 86 87 88 89 89 90 90 90 90 90 89 88 88 87 89 90 90 90 91 91 92 92 93 93 93 94 95 95 95 95 95 94 93 94 95 96 96 96 95 95 94 92 91 92
52 50 50 49 48 47 46 45 44 44 43 42 42 42 42 42 42 42 43 43 44 44 45 46 46 47 47 49 50 51 52 54 55 56 58 60 62 64 67 69 72 74 76 78 80 81 83 84 85 86 86 87 87 87 87 87 87 87 88 89 89 89 89 90 90 90 91 91 92 92 93 92 91 91 91 91 92 92 92 92 93 92 92 91 90 89 89 90
45 44 43 42 42 41 40 39 39 38 37 37 37 37 37 37 37 37 37 37 37 38 39 39 39 40 41 43 44 45 46 47 49 50 52 53 55 57 59 62 64 66 68 70 72 74 76 77 78 80 81 82 84 85 85 85 86 86 87 87 87 88 88 88 88 88 89 89 90 91 90 89 88 88 88 89 90 89 89 89 89 89 89 87 86 86 87 87
39 39 38 38 38 37 36 35 35 34 34 33 33 33 33 32 32 32 32 32 33 33 34 34 34 35 36 38 39 40 41 42 44 45 47 48 50 52 53 55 57 59 62 64 65 67 69 70 72 74 76 78 79 80 81 82 83 84 84 84 85 85 85 85 85 86 86 87 88 88 88 87 86 86 87 87 87 86 87 88 88 87 85 84 83 84 86 85
36 36 36 36 35 34 33 33 33 33 32 31 31 30 29 29 29 29 29 29 30 30 30 30 31 32 33 34 35 36 37 39 40 41 43 44 45 47 48 50 52 54 55 57 59 60 62 64 66 68 70 71 72 73 75 77 78 79 80 80 81 82 82 82 83 84 84 85 86 86 86 86 86 86 85 85 84 84 85 85 85 83 82 81 82 84 85 84
35 35 35 34 34 34 33 33 32 32 31 31 29 28 27 27 27 27 28 28 29 30 30 30 30 30 31 32 32 33 34 35 36 38 39 40 41 43 44 46 47 49 50 52 53 54 56 58 60 62 63 64 65 67 69 71 72 73 74 75 76 77 78 79 80 80 81 82 84 85 85 84 83 83 82 82 82 82 82 81 80 80 79 79 80 82 84 83
35 35 35 34 34 34 34 33 32 32 32 31 30 29 28 28 29 29 30 30 31 31 32 31 30 30 31 31 31 32 32 33 34 35 36 37 38 39 40 42 43 44 45 46 47 49 50 52 54 55 56 57 58 60 62 64 66 67 68 69 71 72 73 74 75 77 79 80 81 82 81 79 78 77 78 78 78 79 79 78 77 77 77 78 79 80 82 82
35 35 35 35 35 35 34 33 33 32 32 32 31 31 30 31 31 31 32 32 33 33 33 32 31 31 31 31 32 33 32 32 32 33 33 34 35 36 37 38 39 40 41 41 42 43 45 46 48 49 50 50 52 54 56 57 59 61 62 63 64 66 67 69 71 73 75 76 76 75 74 74 74 73 72 73 74 74 75 75 74 74 75 75 76 78 79 79
34 35 35 35 35 35 34 33 33 33 33 33 33 32 32 32 33 33 33 34 34 34 34 33 33 33 33 33 34 34 33 33 32 33 33 33 34 34 35 35 36 37 37 38 39 39 40 42 43 43 44 44 46 48 49 50 52 54 55 56 57 59 61 64 66 67 69 69 70 69 69 70 70 68 67 68 69 70 70 71 70 70 71 72 73 73 74 74
34 34 34 34 34 34 34 34 33 33 33 34 34 34 34 34 34 34 35 35 36 35 35 35 34 34 35 35 35 35 35 34 34 34 34 34 35 35 35 35 35 36 36 36 36 36 37 38 39 39 39 40 42 43 43 44 46 47 49 50 50 52 55 56 58 60 62 64 64 64 64 66 65 63 62 63 64 64 65 65 65 66 67 67 67 68 68 67
33 33 33 33 34 34 34 34 34 34 34 34 34 35 35 35 35 35 36 36 36 36 36 36 36 36 37 38 37 36 36 35 36 36 36 36 37 36 36 36 36 36 36 35 35 35 36 37 37 37 37 38 39 39 39 40 41 41 43 45 45 47 49 50 52 54 57 57 58 59 61 61 59 57 56 56 58 58 58 59 59 61 61 61 61 61 61 62
32 32 32 33 33 34 34 34 34 34 34 34 34 35 35 35 35 35 36 36 37 37 37 37 37 37 39 40 39 37 37 37 37 38 38 38 38 38 38 37 38 38 38 37 36 36 36 36 37 37 37 38 38 37 37 37 36 37 39 41 42 43 45 46 46 47 49 49 50 52 54 53 52 51 49 49 50 50 51 52 54 55 55 55 55 55 56 57
31 31 32 32 33 34 34 34 35 35 35 35 35 35 35 35 35 35 36 37 37 37 37 38 38 39 40 41 39 38 38 38 39 39 40 40 40 40 40 40 40 41 40 39 38 37 38 38 39 39 39 39 38 37 36 35 34 36 37 38 39 40 41 41 40 39 41 42 43 44 45 46 46 45 44 44 45 45 46 47 49 49 49 49 50 51 52 53
30 30 31 31 32 32 33 33 34 34 34 34 34 35 35 34 34 35 36 37 37 37 38 38 39 39 41 40 39 39 39 39 40 40 41 41 41 41 41 41 42 43 42 41 39 39 40 41 41 41 41 39 38 37 37 36 36 37 38 37 37 37 37 37 36 35 36 38 38 39 40 40 41 40 40 41 41 41 42 43 44 44 44 44 45 46 47 48
30 30 30 31 31 31 31 31 32 32 33 33 33 34 34 33 33 34 35 36 36 37 37 38 38 39 40 40 38 38 39 40 41 41 42 42 42 42 42 42 43 44 43 41 41 42 43 44 44 43 41 40 39 39 39 38 38 39 39 39 37 36 35 35 34 33 34 35 36 36 36 37 36 36 36 36 37 37 38 38 38 39 40 40 41 42 43 45
31 32 32 32 32 32 31 31 31 32 32 32 33 33 33 32 32 33 33 34 35 35 35 36 36 37 38 37 36 36 38 39 40 41 42 42 42 43 43 44 44 44 42 41 42 44 45 46 45 43 42 41 41 42 42 42 41 41 41 40 40 38 36 35 34 32 32 32 32 33 34 34 35 35 33 33 33 34 34 34 33 34 35 36 38 39 41 42
33 34 34 34 34 34 33 33 33 33 33 33 33 33 33 32 32 32 32 33 33 33 33 34 34 35 35 35 33 34 35 37 37 38 39 39 40 42 43 44 44 44 43 43 43 45 46 46 45 44 44 43 43 44 44 44 43 43 43 42 42 41 39 38 36 34 32 31 31 31 32 33 34 35 35 34 33 32 31 31 30 30 31 33 36 38 39 39
35 36 36 37 37 36 36 35 35 35 35 35 34 33 33 32 32 32 32 32 32 32 33 33 33 33 33 33 32 32 33 34 35 35 36 36 37 39 41 41 42 43 44 44 44 46 47 46 45 45 45 45 44 45 45 46 45 45 45 45 45 44 43 40 38 36 33 32 32 32 32 33 34 35 36 37 36 33 32 31 30 29 29 31 34 35 36 36
37 37 38 39 39 38 38 38 37 37 37 37 36 35 34 34 33 33 32 32 32 33 33 33 33 33 33 32 32 32 33 33 32 32 33 34 35 37 37 37 39 41 41 42 43 45 47 46 46 46 46 46 46 46 46 47 47 46 46 47 47 47 45 42 40 39 36 35 35 34 34 35 37 38 39 40 40 36 33 30 29 28 29 32 34 34 34 35
39 39 40 40 40 40 40 40 40 40 40 39 38 37 37 36 36 35 34 33 34 34 34 34 33 33 33 33 33 33 34 34 32 31 32 33 34 35 34 35 36 37 37 37 39 42 46 46 45 46 47 47 47 47 47 48 48 48 48 49 49 48 45 43 43 42 40 39 39 38 38 38 40 42 42 44 43 39 34 31 30 29 29 33 36 36 35 35
41 41 41 41 41 41 41 41 41 41 41 41 40 40 40 39 38 37 36 36 36 35 35 35 35 35 34 35 35 35 35 35 34 33 33 33 34 34 34 34 35 35 34 34 36 40 43 43 43 45 46 47 47 48 48 48 48 48 49 50 49 48 47 45 45 45 44 43 42 42 41 41 43 45 45 46 45 43 39 35 34 32 32 35 37 37 36 37
43 43 43 43 43 43 42 43 43 42 42 42 42 42 42 41 40 40 39 39 38 37 37 37 36 36 36 37 37 37 37 37 36 36 35 34 35 35 35 36 36 35 33 34 37 39 41 40 40 42 43 45 47 48 48 48 48 49 50 51 49 48 49 49 47 47 46 45 44 44 43 43 45 47 49 49 48 47 45 42 39 37 37 38 38 39 40 40
45 44 44 44 44 44 45 45 44 44 44 43 44 44 43 43 42 42 42 41 41 40 39 39 39 38 38 39 39 39 40 39 39 39 37 37 38 37 37 38 38 37 35 37 38 39 40 40 39 40 41 43 45 46 47 47 48 49 50 50 49 49 51 50 49 48 46 45 45 46 46 46 46 48 51 53 52 51 50 48 45 42 41 42 42 42 43 43
46 46 46 46 46 46 47 47 47 46 45 45 45 45 44 44 44 44 44 43 43 42 42 42 41 41 41 41 41 41 41 42 42 42 40 40 41 40 40 40 40 39 38 39 41 40 40 41 41 41 43 44 45 46 46 45 46 47 48 49 49 50 51 51 50 49 48 46 46 47 49 49 46 47 51 55 56 54 53 52 49 47 45 45 46 46 45 46
48 48 48 48 47 48 48 48 48 47 47 46 46 46 45 44 44 45 45 44 44 43 43 44 43 43 42 42 42 42 42 44 44 44 43 43 43 43 43 43 43 43 42 42 44 43 42 42 43 44 45 46 47 48 47 45 45 47 48 48 49 49 50 50 49 49 48 45 47 50 51 49 45 45 52 58 57 54 53 52 51 50 48 47 48 50 49 49
50 49 49 49 48 48 48 48 48 47 47 46 46 45 44 44 44 45 45 44 44 44 44 44 44 44 44 43 43 44 44 45 46 46 46 45 46 46 46 46 47 47 46 45 46 46 45 45 46 47 48 48 50 51 50 48 47 48 49 49 49 50 50 50 49 49 47 46 49 52 51 48 44 47 56 60 56 54 53 53 52 50 50 49 50 51 51 52
49 48 48 47 46 46 46 46 46 45 45 44 44 44 43 43 43 44 45 44 44 45 45 44 45 45 45 44 44 45 46 46 46 47 47 47 48 48 48 49 49 49 49 47 47 48 48 48 48 50 51 52 53 54 53 51 51 51 52 52 52 52 51 51 51 50 48 49 51 52 50 48 46 51 58 59 56 55 54 53 52 51 51 52 52 52 52 53
47 46 45 45 44 44 43 43 43 42 42 42 42 42 41 41 42 43 44 44 43 44 44 44 45 46 45 45 45 46 47 46 46 47 48 48 49 49 50 50 50 51 50 49 49 50 51 51 51 52 54 55 56 56 56 55 53 54 55 55 56 56 55 55 55 53 51 52 52 51 50 49 50 55 58 58 57 55 54 53 52 52 53 53 54 54 54 54
45 44 43 43 42 42 42 41 41 40 40 40 40 40 40 40 41 42 43 43 43 44 44 44 45 46 46 46 47 48 47 47 47 48 49 49 50 51 51 51 51 51 51 51 51 52 53 54 54 55 56 58 58 58 58 58 56 56 57 58 59 59 58 58 58 57 55 55 55 54 53 53 55 58 58 59 58 56 56 54 52 52 54 55 56 56 55 54
44 43 43 42 42 42 42 41 41 40 40 39 39 39 39 39 41 42 43 43 42 43 44 44 45 46 47 47 47 48 48 48 48 49 50 51 52 52 52 52 52 52 52 52 53 53 54 56 57 58 59 59 59 59 60 59 59 59 59 60 61 62 61 60 60 60 59 58 57 56 57 57 60 61 60 60 61 59 59 58 56 55 56 57 58 58 56 55
45 44 43 43 43 43 42 42 41 40 40 40 40 39 38 38 41 42 42 42 41 43 44 44 45 46 47 48 48 47 48 48 49 50 50 51 52 52 53 54 54 54 54 54 54 54 55 56 58 60 61 60 60 61 61 61 62 61 61 62 62 63 62 62 62 62 61 59 58 58 59 61 63 64 62 63 64 64 63 63 61 60 59 60 61 60 59 57
47 46 45 44 44 44 43 42 42 41 41 40 40 40 39 39 41 42 43 42 41 43 45 45 46 47 48 49 49 48 48 49 50 51 51 51 51 51 52 53 53 54 54 53 54 54 54 56 58 60 61 60 60 61 61 62 62 62 62 63 63 63 64 64 63 63 62 60 59 59 61 63 65 66 64 65 67 67 67 66 65 64 64 64 64 64 63 61
48 47 46 46 45 45 44 43 42 42 42 42 42 41 40 41 42 43 44 44 44 44 46 47 47 48 49 49 49 48 47 48 48 49 49 49 49 49 49 50 50 50 51 50 50 51 51 53 55 57 59 59 58 59 60 60 60 61 62 63 63 63 63 64 64 63 62 61 60 60 62 63 66 67 66 66 68 69 68 68 68 68 68 68 67 67 67 66
48 47 47 47 47 46 44 43 43 43 43 43 44 43 42 43 44 45 46 46 46 46 46 46 47 47 47 47 47 46 45 46 46 46 47 47 46 46 47 47 47 47 47 47 47 47 47 48 50 52 55 56 55 55 56 57 57 58 60 60 61 61 62 63 63 62 62 62 60 60 61 62 64 66 67 67 67 68 69 70 70 70 71 71 70 69 69 69
47 46 47 48 47 46 45 44 44 45 45 45 45 45 44 44 45 45 46 46 46 46 45 45 44 45 45 45 45 45 44 45 44 44 44 44 44 44 44 44 44 44 44 44 45 45 45 45 47 48 51 54 54 53 53 54 54 56 57 57 57 59 60 61 61 61 61 60 59 58 57 58 62 65 66 66 67 68 69 70 70 70 71 72 72 72 71 71
44 44 45 47 47 45 45 45 45 46 46 46 47 46 45 45 44 44 44 44 44 43 43 44 43 43 44 44 44 44 43 44 44 44 43 42 42 42 41 42 43 43 44 44 44 44 44 44 45 47 49 52 55 54 53 53 53 55 57 57 56 57 58 58 58 59 59 58 56 55 54 56 59 61 62 64 65 66 67 68 67 68 69 70 71 71 71 71
41 42 43 45 46 45 44 45 45 45 45 46 46 45 44 43 43 42 42 42 42 42 42 43 43 43 42 42 43 42 42 42 43 43 43 42 42 41 41 41 42 43 44 45 45 44 45 45 45 46 47 50 53 55 55 55 55 56 57 57 57 57 57 57 56 56 57 56 55 55 54 55 58 58 60 62 63 64 65 66 66 67 68 69 69 70 70 70
39 39 41 42 43 43 42 42 43 43 43 44 44 43 42 42 41 41 41 41 41 40 41 41 42 42 41 41 42 42 42 42 42 43 43 44 43 43 42 42 43 44 44 45 46 46 46 46 45 46 47 49 52 54 56 58 58 59 59 58 58 58 58 59 57 56 56 55 55 56 54 55 58 59 61 63 63 65 66 66 67 67 68 69 69 69 70 70
36 37 38 39 40 40 40 40 40 40 41 41 41 41 41 41 41 41 41 41 39 38 38 39 40 41 41 41 41 42 43 43 43 44 45 46 45 44 44 44 45 46 46 46 47 47 47 48 47 47 48 49 52 54 56 58 60 61 61 61 61 60 61 61 60 59 57 55 56 57 54 56 59 61 63 64 64 66 68 68 68 68 68 68 69 69 70 69
34 35 36 36 38 38 38 38 38 38 38 40 40 40 40 40 40 40 40 40 39 37 38 39 40 41 41 41 42 43 44 44 44 45 46 47 47 47 47 47 47 47 48 48 48 48 49 49 49 49 50 50 52 55 56 58 60 62 63 64 65 65 64 64 63 63 60 58 59 57 55 58 61 61 62 65 66 67 68 68 68 68 67 67 68 68 68 68
34 35 35 35 36 37 37 37 38 38 38 39 40 40 40 40 39 38 38 38 38 38 39 39 40 41 41 41 43 44 44 45 45 45 45 46 48 50 51 51 50 50 50 50 51 51 51 51 52 52 52 53 54 56 57 59 61 63 65 67 68 68 68 68 67 65 64 63 61 58 59 61 63 63 64 66 67 68 68 68 68 67 67 67 67 67 67 67
34 36 37 36 36 37 38 38 38 39 39 39 39 39 39 39 38 38 37 37 38 40 41 40 40 41 42 43 44 45 45 46 46 46 46 47 48 51 53 54 54 54 54 54 54 54 54 54 54 55 55 56 56 57 59 60 61 63 66 69 70 71 70 70 70 68 68 67 62 61 64 65 63 65 67 67 69 69 68 67 67 67 67 66 66 66 66 67
33 35 37 37 36 35 37 38 38 38 37 36 37 38 38 39 39 39 39 40 40 42 43 43 42 43 44 45 46 46 47 48 48 48 48 48 49 52 54 56 57 57 58 58 57 57 56 56 57 57 57 58 58 59 61 62 62 63 66 68 70 71 71 71 71 71 72 71 66 65 68 66 62 66 69 68 68 68 68 68 67 67 67 67 66 66 67 67
31 33 35 36 35 34 34 35 36 36 36 35 37 38 38 39 41 41 42 43 44 44 45 46 45 45 45 46 47 47 48 49 50 51 51 51 52 53 55 58 59 59 60 60 60 60 59 59 59 59 59 59 60 61 62 63 63 63 65 67 68 70 71 72 73 75 76 75 71 69 69 65 63 67 69 68 67 68 69 69 68 68 68 67 67 67 67 68
33 33 34 35 35 35 35 34 35 36 36 37 38 39 40 41 43 44 45 45 46 47 48 49 50 49 48 48 48 49 50 51 52 53 54 54 54 56 57 59 61 62 62 63 64 63 62 62 61 61 60 59 59 61 63 64 64 63 64 65 67 69 71 73 76 77 78 76 73 71 69 65 66 70 71 68 68 69 69 69 69 69 68 67 67 67 67 67
35 35 36 37 37 37 37 37 38 39 39 40 42 43 43 44 45 47 48 48 49 51 51 53 53 53 52 51 51 52 53 54 55 56 56 56 57 58 59 60 61 63 64 65 66 65 64 63 62 62 61 58 59 63 64 64 65 63 62 64 68 70 73 76 78 78 78 76 74 72 69 66 68 71 71 70 69 69 69 69 69 69 68 68 67 67 67 67
36 37 38 38 39 40 40 40 42 43 44 45 46 46 47 47 48 50 51 50 51 53 54 54 55 56 56 55 55 55 55 56 56 57 58 58 58 59 60 61 62 63 64 66 67 67 67 65 64 65 62 59 61 65 66 66 65 62 62 66 71 74 76 77 79 79 79 77 76 74 72 70 70 70 70 71 71 70 70 70 69 69 68 67 67 67 67 67
Wind_Direction
261 261 261 262 262 263 263 263 263 263 264 264 264 264 264 264 264 263 263 262 262 261 261 260 259 258 257 256 256 255 255 255 254 254 254 254 253 253 253 253 253 253 254 254 254 255 255 256 256 257 257 257 258 258 258 259 259 260 260 260 260 260 261 261 262 263 264 265 265 266 266 267 267 268 268 269 269 270 270 270 270 270 270 270 270 270 271 271
261 261 262 263 263 264 264 265 265 265 265 265 265 265 265 265 264 264 264 263 263 262 261 261 260 259 258 257 257 256 256 255 255 255 254 254 254 254 253 253 253 253 253 253 254 254 255 255 256 256 256 257 257 258 258 259 259 260 260 260 260 260 261 262 263 263 264 265 265 266 266 267 267 268 268 269 270 270 270 270 269 269 269 269 269 269 269 270
262 263 264 264 265 265 265 266 266 266 266 266 266 265 265 265 264 264 264 263 263 262 261 261 260 259 259 258 257 257 256 256 255 255 255 254 254 254 254 253 253 253 253 253 254 254 254 254 255 255 256 256 257 258 258 259 259 259 260 260 260 261 262 262 263 263 264 265 265 266 266 267 267 268 268 269 270 270 270 269 269 269 269 269 269 269 269 271
263 264 265 265 265 266 266 266 266 266 266 265 265 265 265 264 264 264 263 263 262 262 261 261 260 259 259 258 258 257 256 256 255 254 254 254 254 253 253 253 253 253 253 253 254 254 254 254 255 255 255 256 257 257 258 258 259 260 260 260 261 261 262 262 263 264 264 265 265 265 266 267 267 268 268 269 269 269 269 268 268 268 269 269 269 269 271 272
264 264 264 265 265 265 265 265 265 265 265 264 264 263 263 263 262 262 262 262 261 261 261 260 260 260 259 259 258 257 256 255 255 254 253 253 253 253 252 252 252 252 253 253 253 253 254 254 254 255 255 256 256 257 258 258 259 259 260 260 260 261 261 262 263 263 264 265 265 266 266 267 267 268 268 268 268 268 268 267 267 268 269 269 269 270 271 271
263 263 263 264 264 263 263 263 263 263 263 263 262 261 261 261 261 261 260 260 260 260 260 259 259 259 259 258 257 257 256 255 254 254 253 253 252 252 252 252 251 252 252 252 252 253 253 254 254 255 255 256 256 257 258 258 259 259 259 259 260 261 261 262 262 263 264 265 265 265 266 266 267 267 268 268 267 267 266 267 268 268 269 269 269 269 269 269
262 262 262 262 262 262 262 261 261 261 262 261 261 260 260 259 259 259 259 259 259 259 258 258 258 258 258 257 257 256 255 255 254 254 253 252 252 251 251 251 251 251 252 252 252 253 253 254 254 255 255 256 256 257 257 257 258 258 258 259 260 261 261 262 263 263 264 264 265 265 265 266 267 267 267 267 266 266 267 268 269 269 269 269 269 269 268 268
259 259 259 260 260 260 260 260 261 261 262 261 261 261 260 259 258 257 257 257 257 257 258 257 257 257 256 256 256 255 255 254 253 253 252 251 251 251 251 251 251 251 252 252 252 253 253 254 254 255 255 255 255 256 256 257 258 258 259 260 261 261 262 262 263 263 264 264 264 265 265 266 266 266 265 265 266 267 268 268 268 268 268 268 268 268 267 266
258 258 258 259 259 259 259 260 262 262 262 262 262 261 259 258 256 255 255 256 256 257 257 257 257 256 256 255 255 254 253 253 252 252 251 251 250 250 251 251 251 252 252 252 253 253 254 254 255 255 255 255 256 257 258 258 259 259 260 260 261 262 262 262 262 262 263 263 264 264 265 265 264 263 264 265 267 267 267 267 267 267 268 268 267 266 265 266
257 257 258 258 258 257 259 262 263 262 262 262 261 260 258 255 253 253 254 255 256 256 257 257 256 256 255 255 254 254 253 253 252 252 252 251 251 251 251 251 251 252 252 253 253 254 254 255 255 256 256 257 257 258 258 259 259 260 260 261 261 261 262 262 262 262 262 263 263 263 262 262 263 264 265 266 266 265 265 265 267 267 267 267 265 265 265 265
257 257 257 257 256 257 260 262 262 261 261 260 259 258 256 254 253 253 254 256 256 257 257 256 255 255 255 255 254 254 253 253 253 252 252 252 252 251 251 251 252 252 252 253 254 254 255 255 256 256 257 257 258 258 259 259 260 260 260 260 261 261 261 261 261 262 262 261 261 261 262 263 264 265 265 264 264 264 264 265 265 266 265 264 264 264 264 264
256 256 256 256 256 257 260 261 260 259 259 259 258 257 256 255 255 256 257 258 258 258 258 257 256 255 255 255 254 253 253 252 252 252 253 253 252 252 252 252 252 252 253 253 254 254 255 255 255 256 257 257 258 258 259 259 259 259 260 260 260 260 261 261 261 260 260 260 261 262 263 263 263 263 263 263 263 264 264 264 263 263 263 262 262 263 263 264
256 255 255 255 256 258 260 261 260 258 257 257 257 257 256 256 257 258 258 259 259 259 258 258 257 257 256 256 255 253 252 252 251 252 253 253 253 253 253 253 253 253 253 253 254 254 254 255 255 256 256 257 257 257 257 258 259 259 259 259 260 260 260 260 260 260 260 260 261 262 262 261 260 260 261 262 262 262 263 262 262 262 262 262 262 262 263 264
256 256 255 256 256 258 259 260 259 258 257 256 256 257 257 257 258 258 259 259 259 259 259 259 258 257 256 255 255 254 253 252 252 252 252 252 252 253 252 252 253 253 253 253 253 254 254 255 255 256 256 256 256 257 257 258 258 259 259 259 260 260 259 259 260 260 260 260 260 260 260 260 261 260 260 260 261 261 261 262 262 261 261 261 261 262 263 264
257 257 257 257 257 258 258 258 258 258 257 257 257 257 257 258 258 259 259 259 259 259 259 258 257 257 256 255 255 255 254 254 253 253 252 252 252 252 252 252 253 253 253 253 253 254 255 255 256 256 256 257 257 258 258 258 259 260 261 260 259 258 258 258 259 259 259 260 260 260 260 259 260 260 260 259 260 260 261 261 261 261 260 261 261 262 263 263
258 258 258 258 258 258 257 257 257 257 257 257 257 258 257 258 258 259 259 259 259 259 258 258 257 257 257 255 254 254 255 255 255 255 255 255 254 254 254 254 254 254 254 254 254 255 256 257 258 258 258 258 258 259 260 260 262 264 264 262 259 257 257 258 258 260 261 262 262 261 260 260 260 259 259 259 260 260 260 260 260 259 260 260 261 261 261 262
259 259 258 258 258 257 257 257 256 256 256 256 257 257 257 257 258 258 259 259 258 258 258 258 257 257 257 256 255 255 256 256 256 257 257 256 256 256 255 255 255 255 254 254 255 256 257 258 259 259 259 259 259 260 261 263 265 265 263 262 261 260 260 260 261 263 264 264 264 264 264 264 263 260 258 258 259 258 258 257 257 258 259 259 258 259 259 259
259 259 259 259 259 258 258 257 257 257 256 256 256 256 257 257 258 259 259 259 259 259 258 258 258 257 257 257 257 257 256 256 256 257 257 257 257 257 256 256 255 255 255 255 255 256 257 258 259 259 260 260 261 262 262 262 263 262 262 262 264 264 264 263 263 265 266 265 265 266 267 266 265 262 258 255 254 254 254 254 255 257 257 258 258 257 257 257
261 261 261 261 261 261 260 260 259 259 258 257 257 257 256 257 258 259 261 261 261 261 260 260 259 258 258 258 258 258 258 257 256 256 257 257 257 257 257 257 257 256 256 256 256 257 257 257 257 258 259 261 263 264 262 261 260 260 261 262 263 265 266 266 265 265 266 266 266 266 267 267 267 265 261 255 251 250 252 253 254 255 255 256 257 257 256 256
263 264 264 264 264 264 264 263 262 262 260 259 259 259 258 257 258 260 262 263 263 262 262 261 260 260 260 259 258 259 259 258 257 257 257 257 257 257 257 257 257 257 257 257 257 257 256 256 256 257 259 261 262 263 262 260 259 260 261 262 262 264 266 267 266 266 267 269 270 270 269 269 267 265 262 259 255 251 250 251 252 253 254 254 255 256 255 255
265 266 266 267 266 266 266 266 265 265 263 262 261 261 260 259 260 262 263 264 263 263 263 263 262 262 261 261 260 259 259 259 258 257 258 258 258 259 258 258 258 258 259 258 257 257 257 257 258 258 259 259 260 260 260 260 260 261 262 263 263 263 263 264 266 266 268 270 272 272 272 271 268 265 262 259 257 254 251 250 251 251 251 252 252 252 253 254
266 267 268 268 269 268 268 268 267 267 266 264 263 263 263 262 262 264 264 264 264 263 262 262 262 263 263 263 261 259 259 260 259 259 259 259 260 259 259 258 259 259 259 258 258 258 258 258 259 259 258 257 258 259 260 261 261 261 262 263 263 263 262 262 264 266 268 270 271 271 270 269 269 268 265 261 259 257 254 251 249 248 247 246 247 247 250 253
266 268 268 269 269 269 269 269 268 268 267 267 266 265 266 265 265 265 266 266 265 264 262 261 261 262 264 264 263 261 260 260 260 261 261 260 260 260 259 260 260 259 259 258 259 260 260 260 260 259 258 258 257 258 259 260 260 260 261 262 262 263 262 263 263 264 266 268 269 269 269 269 268 267 266 263 261 259 256 253 251 248 246 244 245 247 249 250
265 266 267 267 268 268 269 269 269 268 268 268 268 267 267 267 267 266 267 267 266 264 263 261 260 260 262 263 263 262 261 260 260 261 262 261 261 261 262 262 261 261 260 260 260 261 261 260 260 260 260 259 258 257 258 259 259 260 260 261 261 261 262 264 264 264 264 264 265 266 266 268 267 266 265 265 264 263 261 258 255 250 247 246 248 249 251 252
263 264 265 266 267 268 268 268 268 268 268 268 269 268 268 267 267 267 268 268 267 266 264 262 260 259 259 261 261 261 261 261 261 260 261 261 262 263 264 263 263 263 263 263 262 261 261 260 260 260 260 260 259 259 258 259 259 259 259 260 260 261 261 262 263 262 261 260 261 261 261 263 264 265 265 265 267 268 267 264 260 254 251 252 252 251 253 255
263 264 264 265 266 267 268 268 268 268 268 268 268 268 268 267 267 267 268 268 267 267 266 265 263 261 260 260 260 261 261 261 261 260 260 261 263 264 265 264 264 264 264 264 263 261 261 261 261 260 260 261 261 260 260 260 260 260 260 259 260 261 261 260 259 259 259 258 258 257 257 258 260 262 264 264 266 268 268 266 263 260 257 257 258 259 258 256
264 264 264 265 266 267 267 267 267 268 267 267 267 267 267 267 267 267 267 267 267 267 267 266 264 263 261 261 261 261 262 262 262 261 261 261 262 263 264 265 264 264 264 263 262 262 263 263 262 262 262 262 261 261 260 260 260 260 260 260 260 261 260 259 257 257 258 258 258 258 257 256 257 259 261 263 264 265 264 262 261 260 259 259 260 261 261 260
264 264 264 265 266 267 267 267 267 267 267 266 266 266 266 266 266 266 266 266 266 266 266 266 265 263 262 261 261 262 263 264 264 263 263 263 263 262 262 263 264 264 263 262 262 263 264 265 265 265 264 263 262 261 261 260 260 261 261 261 261 260 259 259 258 257 257 257 258 259 258 256 256 258 260 261 261 260 260 260 258 258 258 259 259 258 259 260
264 264 265 265 266 266 267 267 267 267 266 266 265 265 265 265 266 266 265 265 265 265 265 265 265 264 263 263 262 262 263 264 265 265 264 264 265 264 264 263 263 263 262 262 262 262 263 265 265 265 264 264 264 263 262 262 262 262 263 262 262 261 261 260 259 258 257 256 257 257 257 255 255 258 261 261 259 258 258 259 259 257 256 257 258 258 258 258
265 265 265 265 265 266 266 266 267 266 266 265 265 265 265 265 265 265 265 265 265 265 264 264 264 265 265 265 264 264 264 265 265 265 265 264 265 265 265 265 265 264 263 262 262 262 262 263 264 264 264 264 264 264 264 263 263 263 263 263 263 263 263 263 262 261 260 258 258 257 256 256 256 258 259 258 258 259 259 260 260 259 257 256 256 257 257 257
266 266 266 266 265 265 266 266 266 266 266 265 265 265 264 264 264 265 265 265 265 265 264 264 264 265 265 265 265 265 264 264 265 266 266 266 265 265 266 266 266 265 264 264 264 264 263 262 263 264 263 264 264 263 263 263 262 262 263 263 263 262 263 263 263 263 262 260 259 258 258 258 257 257 258 258 259 260 260 260 260 260 260 258 256 256 257 258
265 265 265 265 265 265 265 266 266 266 265 265 265 265 264 264 264 265 265 265 265 265 264 264 264 264 263 264 264 264 264 264 265 265 266 266 266 266 266 266 266 266 266 265 266 267 266 264 264 264 264 264 263 263 262 262 262 262 263 263 263 263 262 263 263 262 261 260 259 260 260 260 258 257 259 260 260 260 260 260 261 261 261 260 259 258 257 258
264 264 263 263 264 264 265 265 265 265 265 265 265 264 264 264 265 265 265 265 265 265 265 265 265 264 264 265 264 263 263 264 265 265 266 266 266 265 265 265 265 266 266 267 266 266 267 266 264 264 264 263 263 263 263 262 262 262 263 263 263 263 262 262 262 262 261 261 261 262 262 261 260 259 260 261 261 260 261 261 261 262 261 261 260 259 257 257
263 262 262 262 263 263 264 264 264 265 265 264 264 264 264 265 265 265 265 265 265 266 266 265 266 266 265 265 265 265 265 265 265 266 266 266 266 265 265 265 265 265 266 266 265 264 264 265 264 263 263 262 263 264 264 264 263 262 262 263 263 263 263 263 263 263 263 262 262 263 263 262 261 260 261 263 263 263 262 261 261 261 261 260 260 259 259 258
262 262 262 262 262 263 264 264 265 265 266 266 265 265 264 265 266 265 265 265 266 266 266 266 266 266 266 265 265 266 266 266 267 267 267 267 266 266 266 266 265 264 264 263 262 263 263 263 263 263 262 262 263 263 264 265 264 263 263 263 263 263 264 263 263 263 262 262 263 263 264 263 262 262 262 263 264 264 264 262 260 259 259 259 259 259 259 258
262 262 262 262 263 263 264 264 265 266 266 266 266 265 265 265 266 265 265 265 266 267 267 267 267 267 267 266 265 265 266 266 266 266 266 266 267 268 268 268 267 266 265 264 263 262 262 262 262 262 262 262 262 262 262 262 263 263 262 262 262 263 263 263 263 263 263 264 264 264 264 264 263 263 263 264 264 264 263 263 262 260 259 259 259 259 259 258
261 261 262 262 263 263 264 264 265 266 266 266 266 266 266 265 265 266 267 266 266 267 268 269 269 269 269 269 268 267 267 268 267 266 265 265 266 266 266 267 267 267 267 266 266 265 264 263 262 262 262 261 262 262 262 262 263 263 262 262 262 263 263 263 263 264 265 265 265 264 264 264 264 264 264 264 264 263 263 263 263 262 261 260 259 259 258 258
260 260 261 262 262 263 263 264 265 265 266 266 265 265 266 266 266 268 268 268 268 268 269 269 269 269 270 270 270 269 269 268 267 267 267 266 266 265 265 265 266 266 266 266 265 266 265 265 264 264 263 262 261 261 261 261 262 262 262 262 262 262 262 263 263 263 263 263 263 262 262 263 264 264 264 264 264 265 265 265 264 263 262 261 260 260 259 258
259 260 260 261 261 262 263 264 264 265 265 265 265 265 265 266 267 269 270 271 270 270 270 270 269 269 270 270 270 270 269 267 267 267 267 267 266 265 265 265 265 265 265 265 264 263 262 263 263 264 265 264 262 261 262 261 261 260 261 261 262 262 261 261 261 261 261 260 260 260 261 262 263 263 263 263 263 264 264 264 264 263 263 262 261 261 260 260
259 259 260 260 260 260 262 262 263 264 264 265 266 266 266 266 268 269 270 271 270 270 270 270 270 270 270 271 271 271 269 268 267 266 265 265 266 266 265 266 265 264 263 262 262 260 259 259 260 262 264 265 263 261 261 262 262 261 261 260 260 261 262 262 262 262 261 260 260 260 260 261 262 262 263 263 263 262 262 262 263 264 264 263 263 262 261 261
259 259 259 259 259 259 260 261 262 263 265 266 266 267 267 267 268 268 268 268 269 269 270 270 270 270 270 271 271 271 271 271 270 269 267 265 265 265 265 265 266 265 263 261 260 260 258 257 258 259 262 265 266 265 262 261 261 261 262 262 262 262 262 263 264 264 264 263 262 261 260 259 260 262 264 265 264 264 264 264 263 263 263 263 263 262 261 260
259 258 258 259 260 259 259 261 262 263 264 265 266 267 267 267 267 266 266 267 268 269 269 270 270 269 269 269 269 269 269 269 270 270 270 269 267 266 265 264 264 264 264 264 262 260 259 257 256 256 259 262 267 268 267 265 263 262 263 264 264 264 264 263 263 264 265 266 265 263 261 260 260 261 262 262 263 263 263 263 263 263 263 263 263 263 263 262
259 259 259 260 261 261 261 261 262 263 264 265 265 266 267 267 266 266 265 266 267 268 269 269 270 269 269 269 270 270 270 269 269 269 269 269 268 268 267 266 265 264 264 264 263 262 261 259 257 256 256 258 262 266 269 270 270 268 267 267 266 266 266 265 264 262 262 263 264 263 262 261 261 260 259 259 260 260 261 261 261 262 262 263 263 263 263 264
262 261 260 261 262 262 262 262 261 262 263 264 265 265 265 266 267 267 267 267 266 266 266 266 266 266 267 267 268 269 270 271 272 272 272 272 272 271 270 269 267 266 265 264 263 263 262 261 260 258 257 257 260 263 267 270 272 273 273 272 270 268 267 267 265 263 261 260 260 261 261 261 261 260 261 261 260 260 260 260 260 260 261 262 264 264 265 265
264 264 262 262 263 263 263 262 262 262 262 263 265 265 266 266 267 267 268 268 267 265 263 263 263 264 265 265 265 266 267 268 269 270 272 274 275 275 273 270 268 267 266 265 265 264 264 263 262 261 260 260 261 263 265 268 270 272 273 273 272 271 269 268 267 267 265 263 260 260 260 260 260 260 260 262 262 261 261 261 262 262 262 262 263 264 265 265
266 266 264 263 263 264 264 263 264 264 263 264 265 265 266 265 265 265 265 266 267 266 264 264 265 266 266 267 267 268 269 269 270 270 272 273 274 274 273 272 271 270 268 267 267 266 265 265 264 263 263 262 263 264 265 267 268 270 271 272 272 272 271 271 270 269 268 266 264 263 261 260 260 259 258 259 260 261 262 263 264 264 264 263 263 263 263 263
268 268 267 265 264 265 265 265 265 265 265 265 266 266 266 265 264 263 263 264 265 266 267 266 267 268 269 269 270 270 271 271 271 271 271 271 272 273 273 273 272 271 270 269 268 268 267 267 267 266 265 265 264 264 264 265 266 268 269 271 272 273 273 274 274 272 270 268 267 265 263 261 261 262 261 260 260 262 263 264 264 264 264 264 264 263 262 262
271 270 270 269 268 266 265 266 266 266 266 266 266 266 266 266 266 266 265 263 262 262 264 263 263 264 264 265 266 268 269 270 271 271 270 269 269 270 271 272 271 271 271 271 270 270 269 268 268 267 267 266 266 265 265 265 265 266 268 271 273 274 275 275 275 274 272 270 268 265 264 265 265 265 265 264 264 264 264 264 263 264 264 264 264 264 263 263
273 272 272 272 271 269 266 265 265 266 267 267 266 266 267 268 269 269 269 269 268 268 268 267 266 265 265 266 267 268 269 270 271 271 270 269 269 270 271 272 273 273 273 273 273 272 271 270 269 269 268 268 269 269 268 268 267 267 268 270 272 274 275 275 274 273 272 271 270 268 268 269 268 266 265 266 266 266 265 265 264 264 264 264 265 265 265 266
274 274 273 273 273 272 270 269 267 266 265 264 263 264 265 266 268 269 270 272 273 272 273 273 272 271 271 271 271 272 272 272 272 272 272 272 272 272 273 274 275 275 275 274 274 273 272 272 271 271 270 271 271 271 270 270 270 269 270 271 272 273 273 273 272 271 271 271 271 271 270 270 269 268 267 266 265 265 265 266 266 266 266 266 266 267 267 268
273 273 273 273 273 273 273 272 271 269 267 265 263 262 262 263 264 266 266 267 268 269 270 271 273 274 274 273 272 272 272 273 273 274 274 274 274 274 274 275 275 276 276 275 274 274 274 273 272 272 271 272 272 271 271 271 271 272 274 275 274 273 272 271 271 271 272 272 272 271 270 269 268 268 268 268 267 266 266 266 266 266 267 267 267 267 268 268
273 273 272 271 271 271 271 271 271 271 271 269 268 268 267 267 267 267 268 268 268 270 271 272 273 274 274 273 273 272 272 272 273 274 274 275 275 276 276 275 275 275 276 276 277 276 276 275 274 274 273 273 273 272 272 271 272 274 275 273 271 269 269 270 271 272 272 272 272 272 271 269 267 267 268 268 268 267 267 267 266 266 266 266 267 267 267 268